User: anonymous   Login
Location: ??????
(55.8274°N, 37.9338°E)
Time: 23:58:24
(UTC+00:00)
Language:

Cosmos 1624 Rocket - Orbit

View from above orbital plane
View from above orbital plane
View from above satellite
View from above satellite

Ground track
Ground track

The orbit data is extracted from the following two-line orbital elements,

1 15483U 85006B   24175.90331958  .00000341  00000-0  12354-3 0  9993
2 15483  74.0465 328.3948 0018118  35.2576  80.6261 14.37076991 64665
Epoch (UTC): 23 June 2024 21:40:46
Eccentricity: 0.0018118
inclination: 74.0465°
perigee height: 755 km
apogee height: 781 km
right ascension of ascending node: 328.3948°
argument of perigee: 35.2576°
revolutions per day: 14.37076991
mean anomaly at epoch: 80.6261°
orbit number at epoch: 6466

The dashed part of the orbit path shows where the satellite is in the earth's shadow,  

DLR